Terminal Aerodrome Forecast
Issued by NWS Duluth, MN

Home | Current Version | Previous Version | Text Only | Print | Product List | Glossary On
Versions: 1 2 3 4 5 6 7 8 9 10 11 12 13 14 15 16 17 18 19 20
943
FTUS43 KDLH 211138
TAFINL
TAF
KINL 211138Z 2112/2212 11003KT 6SM BR OVC003
      TEMPO 2112/2114 5SM -DZSN BR OVC005
     FM211800 09004KT 5SM BR OVC005
     FM212300 06003KT 3SM -DZ BR OVC004
     FM220600 03003KT 2SM -DZ OVC003=

USA.gov is the U.S. government's official web portal to all federal, state and local government web resources and services.